This demonstration page uses our WeatherBlox Daily Observations layout. Learn more.

Left ArrowRight Arrow

39.01783, -85.05884

Hourly Observations for July 13, 2018

Temp ( °F °C ) Dew Point ( °F °C ) Humidity (%) Winds ( mph kmh ) Pressure ( in mb ) Visibility ( mi km ) Precip ( " mm )
12:52 am 00:52 Clear 74 23.3 55 12.8 52 52 ENE 7 11 30.14 1021 10 16 0.00 0.00
1:52 am 01:52 Clear 72 22.2 56 13.3 57 57 E 3 6 30.13 1020 10 16 0.00 0.00
2:52 am 02:52 Partly Cloudy 72 22.2 57 13.9 59 59 ENE 6 9 30.12 1020 10 16 0.00 0.00
3:52 am 03:52 Mostly Cloudy 67 19.4 59 15 76 76 Calm 30.12 1020 10 16 0.00 0.00
4:52 am 04:52 Mostly Cloudy 67 19.4 59 15 76 76 N 3 6 30.12 1020 10 16 0.00 0.00
5:52 am 05:52 Mostly Clear 65 18.3 59 15 81 81 Calm 30.12 1020 10 16 0.00 0.00
6:52 am 06:52 Partly Cloudy 68 20 59 15 73 73 Calm 30.12 1020 10 16 0.00 0.00
7:52 am 07:52 Partly Cloudy 71 21.7 61 16.1 71 71 NNE 3 6 30.14 1021 10 16 0.00 0.00
8:52 am 08:52 Partly Cloudy 76 24.4 60 15.6 58 58 ENE 5 7 30.15 1021 10 16 0.00 0.00
9:52 am 09:52 Mostly Sunny 79 26.1 60 15.6 52 52 Calm 30.14 1021 10 16 0.00 0.00
10:52 am 10:52 Sunny 82 27.8 58 14.4 44 44 SE 5 7 30.14 1021 10 16 0.00 0.00
11:52 am 11:52 Mostly Sunny 85 29.4 58 14.4 40 40 VRB 5 7 30.13 1020 10 16 0.00 0.00
12:52 pm 12:52 Mostly Sunny 87 30.6 59 15 39 39 SSE 5 7 30.12 1020 10 16 0.00 0.00
1:52 pm 13:52 Mostly Sunny 90 32.2 58 14.4 34 34 SSE 5 7 30.11 1020 10 16 0.00 0.00
2:52 pm 14:52 Mostly Sunny 91 32.8 54 12.2 28 28 NE 9 15 30.10 1019 10 16 0.00 0.00
3:52 pm 15:52 Sunny 91 32.8 50 10 25 25 E 5 7 30.09 1019 10 16 0.00 0.00
4:52 pm 16:52 Sunny 91 32.8 53 11.7 27 27 VRB 5 7 30.07 1018 10 16 0.00 0.00
5:52 pm 17:52 Mostly Sunny 92 33.3 57 13.9 31 31 VRB 7 11 30.06 1018 10 16 0.00 0.00
6:52 pm 18:52 Mostly Sunny 90 32.2 55 12.8 31 31 ESE 8 13 30.05 1018 10 16 0.00 0.00
7:52 pm 19:52 Mostly Sunny 87 30.6 61 16.1 42 42 SSE 8 13 30.05 1018 10 16 0.00 0.00
8:52 pm 20:52 Mostly Sunny 81 27.2 62 16.7 53 53 SSE 6 9 30.05 1018 10 16 0.00 0.00
9:52 pm 21:52 Clear 79 26.1 61 16.1 54 54 SSE 5 7 30.06 1018 10 16 0.00 0.00
10:52 pm 22:52 Clear 80 26.7 61 16.1 52 52 Calm 30.09 1019 10 16 0.00 0.00
11:52 pm 23:52 Clear 75 23.9 62 16.7 64 64 Calm 30.09 1019 10 16 0.00 0.00

Powered by AerisWeather